Location: Altavilla Irpina
(41.0000°N, 14.7833°E)
Time: 10:15:47
(UTC+00:00)

Cosmos 1633 Rocket - Pass Details

Date: 19 May 2025
Orbit: 600 x 618 km, 82.5° (Epoch: 23 June)

Event Time Altitude Azimuth Distance (km) Brightness Sun altitude
Rises 22:55:32 0° 360° (N) 2,876 7.7 -29.0°
Reaches altitude 10° 22:57:54 10° 8° (N) 1,965 6.5 -29.0°
Enters shadow 23:00:56 33° 45° (NE) 1,033 4.5 -29.0°
